Погода в Рио Майо

Аргентина     45°40′18″S   70°16′24″W
темп.,
°C
ветер,
м/с
пор.,
м/с
влажн.,
%
обл.,
%
осадки,
мм/ч
давл.,
гПа
погр.,
м
23 октября, сб
сб2300:00+6зсз1323575 0.0 10041271
03:00+6юз1220635 0.0 10061109
06:00+4з610671 0.0 1009206
09:00+6з101145100 0.0 1010680
12:00+11зюз101122100 0.0 10091295
15:00+13з15201658 0.0 10072412
18:00+11з1517270 0.0 10071754
21:00+6з1518464 0.0 1010571
24 октября, вс
вс2400:00+5зсз121747100 0.0 1010618
03:00+4сз101557100 0.0 1007553
06:00+4сз71260100 0.0 1002551
09:00+10зсз153053100 0.0 9961669
12:00+17з2436401 0.0 9892216
15:00+17з2738424 0.0 9872353
18:00+12з2334555 0.0 9902021
21:00+8зсз19266493 0.0 9941350
25 октября, пн
пн2500:00+7зсз17246887 0.0 9951080
03:00+6зсз182565100 0.0 995962
06:00+6з192661100 0.0 996947
09:00+8з152153100 0.0 9991365
12:00+12з162539100 0.0 9981886
15:00+13з152640100 0.0 9962119
18:00+12з172647100 0.0 9961811
21:00+8з142464100 0.0 9981358
26 октября, вт
вт2600:00+7з122368100 0.0 998977
03:00+7з142567100 0.0 996928
06:00+7з16276722 0.0 994952
09:00+11з21315412 0.0 9931404
12:00+14з23334458 0.0 9951896
15:00+16з24303576 0.0 9971566
18:00+15зюз182632100 0.0 10011435
21:00+11з112042100 0.0 10071161
27 октября, ср
ср2700:00+9зсз111852100 0.0 1010936
03:00+8сз91660100 0.0 1011651
06:00+7сз81369100 0.0 1012306
09:00+10зсз91659100 0.0 1013741
12:00+15зсз101950100 0.0 10121719
15:00+17зсз111945100 0.0 10131931
18:00+15зсз111953100 0.0 10141473
21:00+12зсз121967100 0.0 1016671